Home > Weather > Växjö > Past weeks

Flag for Sweden Past Weather in Växjö, Sweden — Yesterday and Last 2 Weeks

Now
68 °F

Passing clouds.


Feels Like: 68 °F
Forecast: 52 / 69 °F
Wind: 12 mph from Southwest

Location: Vaxjo Airport

Current Time: Jul 30, 2016 at 1:18:51 PM

Latest Report: Jul 30, 2016 at 12:50 PM


Visibility: N/A

Pressure: 29.74 "Hg

Humidity: 64%

Dew Point: 55 °F

Location of VäxjöLocation

Past Weather in Växjö — Graph

°F

Växjö Temperature Yesterday

Maximum temperature yesterday: 75 °F (at 4:50 PM)
Minimum temperature yesterday: 48 °F (at 2:50 AM)
Average temperature yesterday: 63 °F

High & Low Weather Summary for the Past Weeks

 TemperatureHumidityPressure
High84 °F (Jul 24, 3:50 PM)100% (Jul 16, 7:20 PM)30.15 "Hg (Jul 16, 7:20 PM)
Low48 °F (Jul 22, 4:50 AM)24% (Jul 22, 2:20 PM)29.74 "Hg (Jul 30, 1:50 AM)
Average65 °F73%30.01 "Hg
* Reported Jul 15 12:20 PM — Jul 30 12:20 PM, Växjö, Weather by CustomWeather, © 2016

Note: Actual official high and low records may vary slightly from our data, if they occured in-between our weather recording intervals... More about our weather records

Advertising

Växjö Weather History for the Previous 24 Hours

Scroll right to see more
 ConditionsComfort  
Time TempWeatherWind HumidityBarometerVisibility
12:20 PM
Sat, Jul 30
68 °FPassing clouds.12 mph64%29.74 "HgN/A
11:50 AM68 °FPassing clouds.9 mph73%29.74 "HgN/A
11:20 AM68 °FScattered clouds.8 mph69%29.74 "HgN/A
10:50 AM70 °FBroken clouds.9 mph64%29.74 "HgN/A
10:20 AM68 °FBroken clouds.9 mph73%29.74 "HgN/A
9:50 AM66 °FBroken clouds.10 mph83%29.74 "HgN/A
9:20 AM66 °FBroken clouds.9 mph78%29.74 "HgN/A
8:50 AM64 °FScattered clouds.7 mph83%29.74 "HgN/A
8:20 AM64 °FPartly sunny.7 mph83%29.74 "HgN/A
7:50 AM63 °FBroken clouds.8 mph88%29.74 "HgN/A
7:20 AM63 °FPartly sunny.7 mph88%29.74 "HgN/A
6:50 AM61 °FFog.5 mph94%29.74 "Hg5 mi
6:20 AM61 °FFog.7 mph94%29.74 "Hg4 mi
5:50 AM61 °FFog.7 mph94%29.74 "Hg6 mi
5:20 AM61 °FFog.5 mph94%29.74 "Hg6 mi
4:50 AM61 °FFog.6 mph94%29.74 "Hg6 mi
4:20 AM61 °FFog.6 mph94%29.74 "Hg6 mi
3:50 AM61 °FLow clouds.6 mph94%29.74 "HgN/A
3:20 AM61 °FMostly cloudy.5 mph94%29.74 "HgN/A
2:50 AM61 °FMostly cloudy.6 mph94%29.74 "HgN/A
2:20 AM61 °FPassing clouds.6 mph94%29.74 "HgN/A
1:50 AM63 °FPartly cloudy.6 mph88%29.74 "HgN/A
1:20 AM63 °FPassing clouds.7 mph88%29.77 "HgN/A
12:50 AM63 °FPassing clouds.6 mph83%29.77 "HgN/A
12:20 AM63 °FPartly cloudy.6 mph83%29.77 "HgN/A
11:50 PM
Fri, Jul 29
63 °FPassing clouds.5 mph77%29.77 "HgN/A
11:20 PM63 °FPassing clouds.6 mph77%29.77 "HgN/A
10:50 PM63 °FPassing clouds.5 mph77%29.77 "HgN/A
10:20 PM61 °FCool.7 mph83%29.77 "HgN/A
9:50 PM63 °FMild.8 mph73%29.77 "HgN/A
9:20 PM64 °FPassing clouds.8 mph73%29.77 "HgN/A
8:50 PM68 °FPartly sunny.6 mph64%29.77 "HgN/A
8:20 PM70 °FScattered clouds.6 mph57%29.77 "HgN/A
7:50 PM68 °FPassing clouds.7 mph60%29.77 "HgN/A
7:20 PM70 °FPassing clouds.7 mph57%29.77 "HgN/A
6:50 PM72 °FMild.7 mph53%29.77 "HgN/A
6:20 PM72 °FPassing clouds.9 mph53%29.77 "HgN/A
5:50 PM73 °FScattered clouds.10 mph50%29.77 "HgN/A
5:20 PM73 °FScattered clouds.7 mph47%29.77 "HgN/A
4:50 PM75 °FPassing clouds.9 mph44%29.77 "HgN/A
4:20 PM73 °FPassing clouds.6 mph47%29.80 "HgN/A
3:50 PM72 °FSunny.7 mph50%29.80 "Hg10 mi
3:20 PM73 °FPassing clouds.5 mph47%29.80 "HgN/A
2:50 PM73 °FPassing clouds.6 mph47%29.80 "HgN/A
2:20 PM73 °FMild.8 mph41%29.80 "HgN/A
1:50 PM73 °FPassing clouds.5 mph41%29.83 "HgN/A
1:20 PM72 °FPassing clouds.6 mph44%29.83 "HgN/A
Weather by CustomWeather, © 2016

See weather overviewHow to use our weather pages